Presure
190 185 188 190 198 200 198 199 195 203 213 188 213 219 220 158 163 102 171 192 201 189 193 196 153 223 224 81 202 184 179 177
190 200 199 201 193 200 204 210 199 205 206 224 220 112 219 235 200 179 187 163 86 184 183 211 185 205 221 209 221 203 189 166
213 176 160 151 131 196 207 142 213 225 156 220 131 236 220 192 135 206 175 162 163 180 195 184 206 195 213 212 212 217 210 194
210 233 215 220 227 177 237 247 138 76 169 245 215 257 150 234 228 248 154 188 182 140 131 109 196 222 217 214 203 200 214 210
209 220 214 225 216 164 215 146 234 221 221 263 242 262 231 244 233 250 180 192 167 183 98 199 157 221 193 192 193 209 205 214
212 289 233 253 331 339 359 419 332 292 238 144 192 97 218 236 214 261 251 174 179 180 137 119 197 139 188 201 208 209 191 141
272 308 314 360 249 386 380 200 360 138 360 320 172 269 198 255 245 246 250 166 164 159 189 172 181 201 175 197 205 209 208 205
289 298 372 364 342 327 320 288 314 314 221 222 231 365 365 364 308 255 260 236 207 131 152 143 128 162 182 129 208 221 217 211
295 371 345 289 304 281 298 303 280 303 280 305 318 326 113 388 183 324 230 227 180 245 153 128 200 143 144 186 199 195 192 207
280 330 316 265 303 282 288 289 293 279 273 185 290 298 389 207 482 409 278 208 181 200 137 161 133 155 213 180 158 187 191 178
352 307 299 288 273 271 275 264 255 284 277 265 254 406 367 510 517 96 156 256 221 201 177 190 210 185 193 180 153 165 201 189
336 299 287 266 272 263 284 270 279 259 260 345 337 280 320 596 508 385 159 203 214 167 183 132 165 173 135 183 163 166 154 187
325 286 272 274 264 268 270 261 248 278 256 324 329 374 400 553 404 263 239 215 174 172 189 132 148 160 135 138 135 183 165 187
320 276 264 262 244 248 260 260 283 287 244 315 382 383 468 473 304 244 224 216 197 175 177 164 174 136 152 154 150 143 164 167
280 281 281 270 248 249 258 240 276 267 302 291 301 306 358 452 320 208 227 222 198 184 181 169 163 156 173 163 163 193 175 177
302 265 256 266 249 249 238 264 265 253 277 287 292 293 313 353 226 228 215 200 184 185 169 181 183 176 170 157 179 162 181 169
291 263 256 264 242 261 235 280 272 275 275 290 285 297 237 243 226 211 201 194 195 169 184 170 188 174 182 188 186 175 165 174
284 253 250 248 249 267 277 259 274 265 256 288 310 280 236 224 213 245 212 199 180 189 187 181 162 182 178 193 186 178 173 181
281 288 252 254 244 238 266 261 267 266 206 251 247 242 214 211 198 199 193 191 199 201 201 168 191 169 168 189 197 196 185 184
Wind_Speed
84 77 74 74 81 83 79 84 81 82 86 68 81 82 75 66 61 38 56 67 64 54 54 57 57 52 50 20 45 52 56 56
86 93 96 96 73 85 91 96 86 96 91 98 90 42 76 84 65 59 47 57 27 49 50 59 47 49 49 43 45 48 51 59
98 83 60 55 53 94 96 63 96 105 44 100 51 101 82 71 47 59 58 45 53 52 59 50 58 47 45 43 42 47 47 50
82 96 101 100 103 77 104 101 54 20 76 113 96 111 60 89 76 88 46 52 52 47 64 31 59 58 48 41 43 42 48 47
88 94 97 103 95 74 92 55 100 99 93 103 96 106 91 91 84 88 57 58 56 50 40 65 51 58 32 34 45 45 48 50
93 87 96 92 87 83 77 54 80 75 93 47 62 30 86 91 78 91 75 58 60 52 52 34 44 56 43 42 48 51 51 65
89 85 85 66 49 40 37 45 43 25 48 54 47 96 64 96 92 86 79 56 55 50 54 43 50 52 56 41 54 49 50 48
85 81 45 39 32 35 40 34 43 49 35 45 44 64 76 94 103 87 83 50 50 62 51 63 64 54 54 72 54 61 41 45
75 43 34 30 36 32 37 37 38 43 49 53 62 73 30 80 44 102 73 55 61 40 61 47 85 63 53 52 38 40 39 40
68 42 33 39 34 38 36 41 38 43 57 39 64 64 66 40 66 86 88 55 66 59 61 79 63 53 51 55 62 50 48 56
47 35 35 35 36 35 37 35 47 46 49 45 30 42 39 53 68 36 41 71 60 72 72 59 80 75 49 58 65 65 47 54
44 34 38 40 31 36 37 37 36 46 48 30 31 36 36 32 60 73 55 63 78 55 68 55 70 66 61 49 72 50 60 63
40 39 39 32 31 33 31 39 40 22 41 33 36 33 29 26 59 67 86 84 65 72 43 64 72 72 55 56 53 60 78 69
36 40 35 32 34 32 30 30 13 13 27 28 27 27 16 32 67 89 77 71 68 70 54 71 80 62 73 74 73 60 75 82
37 37 37 34 35 31 30 29 11 6 20 7 6 8 14 26 60 67 74 72 66 71 70 71 71 70 90 89 97 73 88 84
34 43 36 36 35 36 22 20 10 17 1 9 4 11 8 22 83 86 80 75 69 72 70 91 96 104 107 68 99 78 86 68
34 40 39 40 30 30 19 17 12 10 10 13 17 24 78 83 85 84 89 86 87 66 88 77 74 103 90 99 100 95 94 101
34 40 38 35 33 29 25 27 20 23 19 13 13 53 86 94 96 87 88 81 75 92 90 87 71 86 93 103 112 104 79 90
37 38 43 39 32 28 28 31 24 30 33 61 67 73 88 91 79 86 88 82 94 102 95 68 93 72 68 94 111 103 105 103
Wind_Direction
276 274 273 274 276 275 276 276 278 278 276 275 273 274 272 259 258 277 265 277 281 276 281 280 269 268 262 286 257 261 265 269
275 270 270 272 274 278 278 275 275 279 279 279 278 262 276 272 256 253 246 264 273 266 269 282 268 274 266 264 260 256 258 275
269 273 275 283 250 266 272 259 277 276 264 273 273 273 273 271 274 253 251 246 257 256 274 257 274 269 273 263 263 257 257 257
274 273 271 272 271 272 269 267 270 278 273 271 268 270 259 270 267 267 253 241 235 246 267 267 268 271 271 268 265 266 261 253
273 272 274 274 274 269 276 259 269 271 271 261 261 262 266 264 262 263 258 240 253 240 262 265 270 274 265 267 278 277 271 255
276 284 276 278 285 282 277 272 266 262 265 260 255 249 265 263 258 258 254 247 243 229 258 265 264 263 260 285 281 274 258 271
290 294 293 293 276 284 270 262 261 247 255 256 248 257 245 256 257 256 251 243 250 244 232 259 265 275 276 277 278 276 268 266
296 297 289 285 269 270 266 254 264 264 271 261 261 249 245 243 239 248 241 220 222 256 249 255 266 264 270 273 277 279 267 264
301 294 273 260 267 260 266 263 268 264 266 277 264 259 275 247 246 229 242 213 224 197 251 259 266 255 270 256 261 269 263 270
298 281 252 268 256 273 271 270 270 281 274 282 270 272 261 256 235 223 228 191 215 167 257 251 261 255 252 250 261 250 255 253
299 266 256 253 269 277 274 276 279 281 283 283 291 268 270 259 225 269 252 204 205 179 205 233 234 245 234 250 266 264 263 254
293 250 255 271 269 274 270 268 274 286 290 321 305 302 270 261 214 216 236 193 181 199 200 264 244 238 271 250 261 263 262 250
284 254 261 261 263 261 267 269 279 279 286 346 328 316 300 255 204 175 175 195 220 219 185 258 254 244 258 273 273 250 268 260
275 253 260 260 271 275 271 281 303 316 279 360 4 355 291 215 178 168 179 190 203 220 197 236 237 251 250 255 262 273 263 267
241 239 239 248 260 275 270 284 281 174 356 34 48 353 323 209 180 199 167 154 190 210 196 218 244 255 243 249 252 247 256 257
267 242 251 241 257 270 265 251 228 203 272 323 223 164 199 204 183 172 173 184 208 190 216 208 223 228 236 258 250 255 252 257
260 243 245 244 260 251 265 241 225 185 193 275 187 155 165 164 167 174 189 203 188 237 205 227 224 225 233 245 245 247 253 252
255 243 242 241 256 230 233 218 220 183 197 213 230 166 165 169 176 176 188 200 228 207 208 218 251 221 237 241 239 248 252 255
249 254 238 238 251 234 223 212 206 181 223 160 160 168 185 184 205 201 213 220 203 198 202 250 215 253 259 237 239 245 250 252